WC4PEM-15 Weather Reports


Display with metric or nautical units.
time (UTC)temp
F
wind
direction
speed
MPH
gust
MPH
rain 1hr
in
rain 24hr
in
rain mn
in
humidity
%
barometer
mb
20260510123940 75 137 2.0 3.0 0.00 0.00 0.00 92 1016.1
20260510123627 75 108 2.0 3.0 0.00 0.00 0.00 93 1016.1
20260510123440 75 108 2.0 3.0 0.00 0.00 0.00 93 1016.1
20260510123051 74 133 2.0 3.0 0.00 0.00 0.00 93 1016.0
20260510122940 74 133 2.0 3.0 0.00 0.00 0.00 93 1016.0
20260510122637 74 113 2.0 3.0 0.00 0.00 0.00 93 1016.1
20260510122440 74 113 2.0 3.0 0.00 0.00 0.00 93 1016.1
20260510122146 74 113 2.0 3.0 0.00 0.00 0.00 94 1016.1
20260510121940 74 113 2.0 3.0 0.00 0.00 0.00 94 1016.1
20260510121551 74 103 2.0 3.0 0.00 0.00 0.00 94 1015.8
20260510121440 74 103 2.0 3.0 0.00 0.00 0.00 94 1015.8
20260510121058 74 80 2.0 3.0 0.00 0.00 0.00 94 1015.7
20260510120940 74 80 2.0 3.0 0.00 0.00 0.00 94 1015.7
20260510120801 74 93 2.0 3.0 0.00 0.00 0.00 94 1015.8
20260510120440 74 93 2.0 3.0 0.00 0.00 0.00 94 1015.8
20260510120047 73 65 2.0 3.0 0.00 0.00 0.00 94 1015.7
20260510115940 73 65 2.0 3.0 0.00 0.00 0.00 94 1015.7
20260510115711 73 61 2.0 3.0 0.00 0.00 0.00 94 1015.6
20260510115440 73 61 2.0 3.0 0.00 0.00 0.00 94 1015.6
20260510115411 73 83 2.0 3.0 0.00 0.00 0.00 94 1015.7
20260510114940 73 83 2.0 3.0 0.00 0.00 0.00 94 1015.7
20260510114641 73 68 2.0 3.0 0.00 0.00 0.00 94 1015.7
20260510114440 73 68 2.0 3.0 0.00 0.00 0.00 94 1015.7
20260510114114 73 9 3.0 4.0 0.00 0.00 0.00 94 1015.5